Location: Berkeley
(37.8716°N, 122.2727°W)
Time: 09:10:23
(UTC-07:00)

Envisat - Visible Passes

Search period start: 19 April 2024 00:00
Search period end: 29 April 2024 00:00
Orbit: 762 x 764 km, 98.3° (Epoch: 19 April)

Date Brightness Start Highest point End Pass type
(mag) Time Alt. Az. Time Alt. Az. Time Alt. Az.
19 Apr 3.2 04:19:42 10° NNE 04:24:46 68° ESE 04:27:03 32° S visible
19 Apr 4.8 06:00:39 10° NNW 06:03:07 14° WNW 06:05:35 10° W visible
20 Apr 4.6 03:42:55 10° NE 03:47:18 29° E 03:49:23 22° SE visible
20 Apr 3.9 05:21:49 10° N 05:26:11 30° WNW 05:29:33 15° WSW visible
21 Apr 5.6 03:07:44 10° ENE 03:09:39 12° E 03:11:33 10° ESE visible
21 Apr 2.9 04:44:01 10° N 04:49:04 69° WNW 04:51:52 26° SSW visible
22 Apr 3.7 04:06:48 10° NNE 04:11:45 50° E 04:14:12 27° SSE visible
22 Apr 4.6 05:46:55 10° NNW 05:50:17 18° WNW 05:53:37 10° WSW visible
23 Apr 5.0 03:30:21 10° NE 03:34:13 22° E 03:36:31 16° SE visible
23 Apr 3.6 05:08:35 10° N 05:13:17 39° WNW 05:16:42 17° SW visible
24 Apr 2.9 04:30:59 10° NNE 04:36:04 89° E 04:39:01 26° SSW visible
25 Apr 4.2 03:53:59 10° NNE 03:58:41 37° E 04:01:20 22° SSE visible
25 Apr 4.3 05:33:26 10° NNW 05:37:24 24° WNW 05:41:21 10° WSW visible
26 Apr 5.4 03:18:00 10° NE 03:21:05 16° E 03:23:39 12° SE visible
26 Apr 3.2 04:55:24 10° N 05:00:20 53° WNW 05:03:48 19° SW visible
27 Apr 3.2 04:18:00 10° NNE 04:23:04 67° ESE 04:26:07 24° S visible
28 Apr 4.7 03:41:15 10° NE 03:45:35 28° E 03:48:25 17° SE visible
28 Apr 3.9 05:20:06 10° N 05:24:30 31° WNW 05:28:35 11° SW visible
